Terminal Aerodrome Forecast
Issued by NWS

Home | Current Version | Previous Version | Text Only | Print | Product List | Glossary On
Versions: 1 2 3 4 5 6 7 8 9 10 11 12 13 14
000
FTUS43 KFGF 182300
TAFBJI
TAF
KBJI 182320Z 1900/1924 12010KT P6SM BKN200
     FM190800 11009KT P6SM -RA OVC035
     FM191300 30009KT P6SM -RA OVC015
     FM191500 31015G23KT P6SM SHRA OVC025
     FM192000 31014G22KT P6SM OVC050=

USA.gov is the U.S. government's official web portal to all federal, state and local government web resources and services.